sat.trackr.live / text

‹ back to catalog

STARLINK-32083

NORAD 60343 · 2024-136Q

PAYLOAD ACTIVE UNKNOWN

§ Identity

Operator
Country
US
Launch date
2024-08-02
Launch site
AFETR
Launch vehicle
Mass (kg)
RCS (m²)

Purposes: comms

External: N2YO · Heavens-Above · Gunter

§ Orbital elements

Epoch: 2026-09-21T22:38:47.957568Z

Period
93.85 min
Inclination
53.1584°
Eccentricity
0.0001381
Mean motion
15.34389188 rev/d
Perigee alt
461.8 km
Apogee alt
463.7 km
Semi-major
6,840.9 km
B*
2.9259e-6
RAAN
243.2205°
Arg perigee
85.8479°
Mean anomaly
274.2681°
Rev number
11,972

§ Raw data

STARLINK-320831 60343U 24136Q   26264.94361062 -.00000277  00000+0  29259-5 0  99912 60343  53.1584 243.2205 0001381  85.8479 274.2681 15.34389188119726

JSON: /api/v1/satellites/60343 · /tle

For live sub-satellite position, see the globe view (requires WebGL).

§ Visibility from observer

Set your observer location to see the next 7 days of passes ≥ 10°. The values pass through the URL so the page stays shareable.

No JS? Fill the form by hand. The geolocation button needs JavaScript.